Home > Weather > Knarvik > Past weeks

Flag for Norway Past Weather in Knarvik, Norway — Yesterday and Last 2 Weeks

Now
54 °F

Cool.


Feels Like: 54 °F
Forecast: 51 / 59 °F
Wind: 1 mph from East

Location: Bergen / Florida

Current Time: Jun 30, 2016 at 5:20:26 AM

Latest Report: Jun 30, 2016 at 4:00 AM


Visibility: N/A

Pressure: 29.54 "Hg

Humidity: 80%

Dew Point: 48 °F

Location of KnarvikLocation

Past Weather in Knarvik — Graph

°F

Knarvik Temperature Yesterday

Maximum temperature yesterday: 62 °F (at 10:00 AM)
Minimum temperature yesterday: 49 °F (at 3:00 AM)
Average temperature yesterday: 56 °F

High & Low Weather Summary for the Past Weeks

 TemperatureHumidityPressure
High74 °F (Jun 15, 1:00 PM)88% (Jun 24, 8:00 PM)30.13 "Hg (Jun 24, 8:00 PM)
Low47 °F (Jun 20, 3:00 AM)28% (Jun 15, 12:00 PM)29.54 "Hg (Jun 30, 4:00 AM)
Average59 °F71%29.82 "Hg
* Reported Jun 15 4:00 AM — Jun 30 4:00 AM, Knarvik, Weather by CustomWeather, © 2016

Note: Actual official high and low records may vary slightly from our data, if they occured in-between our weather recording intervals... More about our weather records

Advertising

Knarvik Weather History for the Previous 24 Hours

Scroll right to see more
 ConditionsComfort  
Time TempWeatherWind HumidityBarometerVisibility
4:00 AM
Thu, Jun 30
54 °FCool.1 mph80%29.54 "HgN/A
3:00 AM57 °FCool.2 mph70%29.57 "HgN/A
2:00 AM58 °FCool.2 mph66%29.58 "HgN/A
1:00 AM58 °FCool.2 mph66%29.59 "HgN/A
12:00 AM58 °FCool.5 mph64%29.61 "HgN/A
11:00 PM
Wed, Jun 29
58 °FLight rain. Overcast.5 mph66%29.62 "Hg17 mi
10:00 PM60 °FCool.6 mph60%29.62 "HgN/A
9:00 PM60 °FRefreshingly cool.5 mph60%29.62 "HgN/A
8:00 PM61 °FOvercast.3 mph57%29.62 "Hg25 mi
7:00 PM62 °FRefreshingly cool.2 mph59%29.62 "HgN/A
6:00 PM60 °FRefreshingly cool.3 mph59%29.63 "HgN/A
5:00 PM59 °FLight rain. Overcast.3 mph62%29.65 "Hg19 mi
4:00 PM58 °FCool.1 mph73%29.69 "HgN/A
3:00 PM58 °FCool.1 mph67%29.72 "HgN/A
2:00 PM58 °FLight rain. Overcast.2 mph61%29.73 "Hg16 mi
1:00 PM60 °FRefreshingly cool.7 mph58%29.75 "HgN/A
12:00 PM61 °FRefreshingly cool.5 mph55%29.76 "HgN/A
11:00 AM60 °FOvercast.5 mph56%29.75 "Hg25 mi
10:00 AM62 °FRefreshingly cool.1 mph57%29.75 "HgN/A
9:00 AM57 °FCool.1 mph69%29.76 "HgN/A
8:00 AM56 °FOvercast.No wind76%29.77 "Hg19 mi
7:00 AM53 °FCool.1 mph81%29.78 "HgN/A
6:00 AM51 °FCool.1 mph85%29.79 "HgN/A
5:00 AM50 °FCool.1 mph85%29.81 "HgN/A
Weather by CustomWeather, © 2016

See weather overviewHow to use our weather pages